Regional Weather Roundup
Issued by NWS Albany, NY

Home | Current Version | Previous Version | Text Only | Print | Product List | Glossary On
Versions: 1 2 3 4 5 6 7 8 9 10 11 12 13 14 15 16 17 18 19 20 21 22 23 24 25 26 27
000
ASUS41 KALY 010610
RWRALY

NEW YORK STATE HOURLY WEATHER ROUNDUP
NATIONAL WEATHER SERVICE ALBANY NY
200 AM EDT SUN MAY 01 2016

NOTE: "FAIR" INDICATES FEW OR NO CLOUDS BELOW 12,000 FEET WITH NO
SIGNIFICANT WEATHER AND/OR NO OBSTRUCTIONS TO VISIBILITY.

NYZ032-033-038>043-046>054-057>066-NYZ062>081-082-084-010700-
EAST


CITY           SKY/WX    TMP DP  RH WIND       PRES   REMARKS
ALBANY         CLOUDY    53  38  56 S6        30.18R
GLENS FALLS    CLOUDY    45  32  60 CALM      30.18S
POUGHKEEPSIE   CLOUDY    51  38  60 SE6       30.19F
MONTGOMERY     CLOUDY    49  37  63 S3        30.18F
WHITE PLAINS   CLOUDY    46  38  73 SE3       30.20F
ISLIP          CLOUDY    48  36  63 S3        30.22F
NEW YORK CITY  CLOUDY    51  36  56 S6        30.21F
CENTRAL PARK   PTCLDY    50  37  61 MISG      30.24F
$$

NYZ005>009-017-018-044>046-055-056-010700-
CENTRAL


CITY           SKY/WX    TMP DP  RH WIND       PRES   REMARKS
FULTON         CLOUDY    52  39  61 CALM      30.12F
SYRACUSE       CLOUDY    51  42  71 E6        30.11F
ROME           CLOUDY    51  42  71 E3        30.14F
ELMIRA         LGT RAIN  50  43  77 VRB3      30.09F
BINGHAMTON     LGT RAIN  48  40  73 S7        30.11F
MONTICELLO     PTCLDY    46  41  81 S7        30.19S
$$

NYZ026>034-041>043-087-010700-
NORTH


CITY           SKY/WX    TMP DP  RH WIND       PRES   REMARKS
WATERTOWN      CLOUDY    49  28  44 E5        30.12F
FORT DRUM      NOT AVBL
MASSENA        CLOUDY    44  23  43 NE8       30.19F
SARANAC LAKE   CLOUDY    42  15  33 E3        30.15S
PLATTSBURGH    PTCLDY    41  25  53 CALM      30.18F
$$

NYZ001>004-010>016-019>021-085-010700-
WEST


CITY           SKY/WX    TMP DP  RH WIND       PRES   REMARKS
NIAGARA FALLS  LGT RAIN  50  38  63 E6        30.04F
BUFFALO        LGT RAIN  51  45  79 E7        30.04F
DUNKIRK        LGT RAIN  50  46  86 E7        30.01F
JAMESTOWN      CLOUDY    46  43  87 E8        29.99F
WELLSVILLE     LGT RAIN  46  44  93 SE10      30.04F FOG
ROCHESTER      CLOUDY    53  41  63 E9        30.08F
PENN YAN       CLOUDY    50  42  74 SE5       30.09F
$$

             KEY
       WCI = WIND CHILL INDEX
       VSB = VISIBILITY
       HX  = HEAT INDEX
$$




USA.gov is the U.S. government's official web portal to all federal, state and local government web resources and services.